Regional Weather Roundup
Issued by NWS

Home | Current Version | Previous Version | Text Only | Print | Product List | Glossary Off
Versions: 1 2 3 4 5 6 7 8 9 10 11 12 13 14 15 16 17 18 19 20 21 22 23 24 25 26 27 28 29 30 31 32 33 34 35 36 37 38 39 40 41 42 43 44 45 46 47 48 49 50

000
ASUS45 KBOI 261910
RWRID
WEATHER ROUNDUP FOR IDAHO
NATIONAL WEATHER SERVICE BOISE ID
1200 PM MST FRI DEC 26 2014

NOTE: "FAIR" INDICATES FEW OR NO CLOUDS BELOW 12000 FEET
WITH NO SIGNIFICANT WEATHER AND/OR OBSTRUCTIONS TO VISIBILITY

IDZ012-014-262000-
SOUTHWEST IDAHO


CITY           SKY/WX    TMP DP  RH WIND       PRES   REMARKS
BOISE          FAIR      34  25  69 W7        30.20R WCI  28
CALDWELL       FAIR      36  23  60 SW13      30.24F WCI  27
MOUNTAIN HOME  FAIR      34  26  72 NW23      30.16S WCI  21
$$

IDZ016-017-262000-
SOUTHCENTRAL IDAHO


CITY           SKY/WX    TMP DP  RH WIND       PRES   REMARKS
BURLEY         MIX PCPN  25  17  72 W12       30.10R WCI  14
JEROME         CLOUDY    21  19  92 W5        30.13R WCI  15
TWIN FALLS     CLOUDY    26  19  74 SW8       30.12R WCI  18
$$

IDZ019>023-262000-
SOUTHEAST IDAHO


CITY           SKY/WX    TMP DP  RH WIND       PRES   REMARKS
IDAHO FALLS    PTSUNNY   16   9  74 W6        30.07R WCI   7
POCATELLO      FAIR      21  16  81 W6        30.09S WCI  13
REXBURG        CLOUDY    11   8  88 SW3       30.05F
$$

IDZ006-010-011-018-031-032-262000-
CENTRAL IDAHO MOUNTAINS


CITY           SKY/WX    TMP DP  RH WIND       PRES   REMARKS
MCCALL         CLOUDY    26  19  74 W6        30.09F WCI  19
HAILEY         MOSUNNY   21   7  53 CALM      30.07R
STANLEY          N/A     18  10  71 CALM      30.04F
SALMON         PTSUNNY   25  18  74 S3        30.12S
CHALLIS        CLOUDY    23  13  65 CALM      30.07S
$$

IDZ002-004-006-007-026-262000-
NORTHERN IDAHO


CITY           SKY/WX    TMP DP  RH WIND       PRES   REMARKS
LEWISTON       CLOUDY    37  30  75 S5        30.28S WCI  33
LOWELL           N/A     36  34  92 VRB3      30.28S
COEUR D`ALENE  CLOUDY    27  23  86 N5        30.24S WCI  21
MULLAN PASS    LGT SNOW  20  15  81 CALM      30.03S
$$



USA.gov is the U.S. government's official web portal to all federal, state and local government web resources and services.